FW8607 Weather Reports


Display with metric or nautical units.
time (UTC)temp
F
wind
direction
speed
MPH
gust
MPH
rain 1hr
in
rain 24hr
in
rain mn
in
humidity
%
barometer
mb
20260905233018 91 248 8.0 15.0 0.00 0.00 0.00 36 1011.9
20260905230018 91 248 7.0 15.0 0.00 0.00 0.00 33 1011.7
20260905223018 90 248 7.0 13.0 0.00 0.00 0.00 37 1012.1
20260905220018 91 248 8.0 15.0 0.00 0.00 0.00 31 1012.4
20260905213038 92 248 8.0 16.0 0.00 0.00 0.00 37 1012.4
20260905210018 92 248 7.0 14.0 0.00 0.00 0.00 38 1012.8
20260905203018 92 270 8.0 14.0 0.00 0.00 0.00 37 1013.1
20260905200018 92 248 7.0 16.0 0.00 0.00 0.00 30 1013.2
20260905193018 90 293 6.0 12.0 0.00 0.00 0.00 26 1013.4
20260905190017 89 293 6.0 13.0 0.00 0.00 0.00 26 1013.7
20260905183018 85 315 7.0 13.0 0.00 0.00 0.00 32 1013.9
20260905180017 83 338 5.0 10.0 0.00 0.00 0.00 34 1014.1
20260905173019 82 315 5.0 9.0 0.00 0.00 0.00 37 1014.0
20260905170019 80 315 4.0 10.0 0.00 0.00 0.00 37 1013.6
20260905163039 79 315 4.0 9.0 0.00 0.00 0.00 40 1013.6
20260905160019 76 0.0 3.0 0.00 0.00 0.00 38 1013.4
20260905153019 73 90 3.0 8.0 0.00 0.00 0.00 40 1013.2
20260905150019 70 90 4.0 7.0 0.00 0.00 0.00 46 1013.2
20260905143019 67 90 3.0 7.0 0.00 0.00 0.00 56 1013.0
20260905140019 66 113 3.0 4.0 0.00 0.00 0.00 54 1012.8
20260905133019 64 90 2.0 4.0 0.00 0.00 0.00 59 1012.4
20260905130039 65 315 1.0 4.0 0.00 0.00 0.00 60 1012.2
20260905123039 66 0.0 0.0 0.00 0.00 0.00 59 1012.3
20260905120019 66 135 1.0 3.0 0.00 0.00 0.00 55 1012.3
20260905113019 64 135 1.0 3.0 0.00 0.00 0.00 63 1012.2
20260905110019 65 113 3.0 6.0 0.00 0.00 0.00 68 1012.2
20260905103039 64 113 3.0 6.0 0.00 0.00 0.00 71 1012.4
20260905100018 65 135 2.0 6.0 0.00 0.00 0.00 65 1012.5
20260905093018 65 135 3.0 6.0 0.00 0.00 0.00 67 1012.7
20260905090019 62 90 4.0 7.0 0.00 0.00 0.00 81 1012.7
20260905083019 63 113 2.0 4.0 0.00 0.00 0.00 88 1013.2
20260905080018 63 113 2.0 3.0 0.00 0.00 0.00 89 1013.4
20260905073018 63 0.0 3.0 0.00 0.00 0.00 88 1013.7
20260905070038 62 113 2.0 6.0 0.00 0.00 0.00 86 1013.3
20260905063038 63 113 4.0 7.0 0.00 0.00 0.00 86 1013.4
20260905060018 64 135 2.0 5.0 0.00 0.00 0.00 86 1013.2
20260905053018 64 0.0 0.0 0.00 0.00 0.00 87 1013.2
20260905050018 64 0.0 0.0 0.00 0.00 0.00 86 1013.0
20260905043018 65 248 2.0 4.0 0.00 0.00 0.00 86 1012.4
20260905040018 66 248 3.0 6.0 0.00 0.00 0.00 83 1012.3
20260905033018 67 270 4.0 7.0 0.00 0.00 0.00 81 1012.1
20260905030018 68 270 5.0 8.0 0.00 0.00 0.00 78 1011.9
20260905023018 70 270 6.0 10.0 0.00 0.00 0.00 72 1011.7
20260905020018 74 248 6.0 10.0 0.00 0.00 0.00 60 1011.8
20260905013018 77 270 6.0 10.0 0.00 0.00 0.00 49 1011.7
20260905010017 78 270 6.0 12.0 0.00 0.00 0.00 48 1011.7
20260905003019 79 248 6.0 12.0 0.00 0.00 0.00 49 1011.7
20260905000019 80 248 6.0 13.0 0.00 0.00 0.00 50 1012.0